TimePST,TemperatureF,Dew PointF,Humidity,Sea Level PressureIn,VisibilityMPH,Wind Direction,Wind SpeedMPH,Gust SpeedMPH,PrecipitationIn,Events,Conditions,WindDirDegrees,DateUTC
12:53 AM,50.0,48.9,96,30.09,10.0,NNW,4.6,-,N/A,,Partly Cloudy,330,2012-11-29 08:53:00
1:53 AM,50.0,48.9,96,30.08,10.0,WNW,5.8,-,N/A,,Mostly Cloudy,300,2012-11-29 09:53:00
2:53 AM,52.0,50.0,93,30.08,10.0,NW,3.5,-,N/A,,Mostly Cloudy,310,2012-11-29 10:53:00
3:53 AM,52.0,50.0,93,30.08,10.0,NW,4.6,-,0.01,,Clear,320,2012-11-29 11:53:00
4:53 AM,51.1,50.0,96,30.08,10.0,NNW,5.8,-,N/A,,Scattered Clouds,330,2012-11-29 12:53:00
5:53 AM,51.1,48.9,92,30.08,10.0,NNW,3.5,-,N/A,,Scattered Clouds,330,2012-11-29 13:53:00
6:53 AM,52.0,50.0,93,30.08,10.0,Calm,Calm,-,N/A,,Clear,0,2012-11-29 14:53:00
7:53 AM,52.0,50.0,93,30.09,10.0,Calm,Calm,-,N/A,,Clear,0,2012-11-29 15:53:00
8:53 AM,55.0,51.1,86,30.09,10.0,Calm,Calm,-,N/A,,Clear,0,2012-11-29 16:53:00
9:53 AM,55.9,52.0,87,30.09,10.0,WNW,3.5,-,N/A,,Overcast,290,2012-11-29 17:53:00
10:53 AM,59.0,52.0,78,30.09,10.0,Calm,Calm,-,N/A,,Overcast,0,2012-11-29 18:53:00
11:53 AM,57.0,55.0,93,30.07,9.0,North,3.5,-,0.01,Rain,Light Rain,350,2012-11-29 19:53:00
12:53 PM,57.0,55.0,93,30.05,8.0,NW,3.5,-,0.00,Rain,Light Rain,320,2012-11-29 20:53:00
1:18 PM,57.2,55.4,94,30.04,1.8,North,3.5,-,0.02,Rain,Light Rain,350,2012-11-29 21:18:00
1:26 PM,57.2,55.4,94,30.03,3.0,NNW,4.6,-,0.02,Rain,Light Rain,340,2012-11-29 21:26:00
1:53 PM,57.9,55.9,93,30.03,10.0,WNW,4.6,-,0.02,,Overcast,300,2012-11-29 21:53:00
2:53 PM,57.9,55.9,93,30.01,10.0,Calm,Calm,-,N/A,,Overcast,0,2012-11-29 22:53:00
3:53 PM,57.9,55.9,93,30.00,10.0,WNW,3.5,-,N/A,,Overcast,300,2012-11-29 23:53:00
4:53 PM,57.9,55.9,93,30.01,10.0,NW,3.5,-,N/A,,Overcast,320,2012-11-30 00:53:00
5:53 PM,57.9,55.9,93,30.00,9.0,NW,4.6,-,0.00,Rain,Light Rain,310,2012-11-30 01:53:00
6:53 PM,57.9,57.0,97,30.00,10.0,NW,3.5,-,0.01,,Overcast,320,2012-11-30 02:53:00
7:53 PM,57.9,57.9,100,29.99,10.0,Calm,Calm,-,N/A,,Overcast,0,2012-11-30 03:53:00
8:53 PM,57.9,57.9,100,29.98,7.0,WNW,3.5,-,N/A,,Overcast,290,2012-11-30 04:53:00
9:05 PM,57.2,57.2,100,29.98,10.0,NW,3.5,-,N/A,,Overcast,320,2012-11-30 05:05:00
9:15 PM,57.2,55.4,94,29.96,10.0,NNW,4.6,-,N/A,,Overcast,330,2012-11-30 05:15:00
9:30 PM,57.2,55.4,94,29.98,10.0,WNW,5.8,-,N/A,,Mostly Cloudy,300,2012-11-30 05:30:00
9:53 PM,57.0,55.9,96,29.97,10.0,Calm,Calm,-,N/A,,Overcast,0,2012-11-30 05:53:00
10:53 PM,59.0,55.9,90,29.98,10.0,West,3.5,-,N/A,,Mostly Cloudy,270,2012-11-30 06:53:00
11:21 PM,60.8,57.2,88,29.97,10.0,South,15.0,-,N/A,,Overcast,170,2012-11-30 07:21:00
11:53 PM,59.0,55.9,90,29.94,10.0,Calm,Calm,-,N/A,,Mostly Cloudy,0,2012-11-30 07:53:00